CT1ETE Weather Reports


time (UTC)temp
C
wind
direction
speed
KPH
gust
KPH
rain 1hr
cm
rain 24hr
cm
rain mn
cm
humidity
%
barometer
mb
20181215020949 10 121 8.0 14.5 0.15 0.51 0.41 96 1025.0
20181215015449 10 134 8.0 16.1 0.23 0.48 0.38 95 1024.8
20181215013949 10 159 4.8 9.7 0.23 0.43 0.33 95 1025.2
20181215012455 10 163 4.8 12.9 0.28 0.41 0.30 95 1025.2
20181215011730 10 155 3.2 12.9 0.23 0.36 0.25 95 1025.3
20181215010955 10 155 3.2 12.9 0.23 0.36 0.25 95 1025.3
20181215005455 10 127 1.6 9.7 0.15 0.25 0.15 94 1025.5
20181215003953 10 176 3.2 11.3 0.13 0.20 0.10 95 1025.5
20181215002451 10 158 9.7 24.1 0.05 0.13 0.03 94 1025.4
20181215000952 10 154 8.0 22.5 0.05 0.13 0.03 94 1025.4
20181215000226 10 140 8.0 14.5 0.05 0.10 0.10 94 1025.5
20181214235451 10 140 8.0 14.5 0.05 0.10 0.10 94 1025.5
20181214234727 10 111 11.3 20.9 0.05 0.08 0.08 94 1025.5
20181214233951 10 111 11.3 20.9 0.05 0.08 0.08 94 1025.5
20181214232450 10 135 6.4 14.5 0.05 0.08 0.08 94 1025.7
20181214231727 10 131 8.0 19.3 0.03 0.05 0.05 94 1025.6
20181214230951 10 131 8.0 19.3 0.03 0.05 0.05 94 1025.6
20181214225451 11 184 6.4 19.3 0.00 0.05 0.05 93 1025.7
20181214223950 11 181 9.7 22.5 0.00 0.05 0.05 93 1025.7
20181214222449 10 160 8.0 16.1 0.00 0.08 0.05 93 1025.8
20181214221724 10 188 3.2 17.7 0.03 0.08 0.05 94 1025.6
20181214220949 10 188 3.2 17.7 0.03 0.08 0.05 94 1025.6
20181214215449 10 175 4.8 14.5 0.03 0.08 0.05 94 1025.8
20181214213947 10 102 6.4 12.9 0.03 0.08 0.05 95 1025.5
20181214213222 10 146 9.7 12.9 0.03 0.08 0.05 95 1025.5
20181214212447 10 146 9.7 12.9 0.03 0.08 0.05 95 1025.5
20181214210947 10 117 9.7 14.5 0.00 0.05 0.03 95 1025.5
20181214205447 10 144 4.8 11.3 0.00 0.05 0.03 95 1025.7
20181214203947 10 127 9.7 16.1 0.00 0.05 0.03 95 1025.9
20181214202446 10 120 4.8 11.3 0.00 0.05 0.03 95 1025.8
20181214200946 10 34 0.0 3.2 0.03 0.05 0.03 95 1026.0
20181214195445 10 264 0.0 4.8 0.03 0.05 0.03 95 1026.2
20181214194721 10 250 0.0 4.8 0.03 0.05 0.03 95 1026.2
20181214193945 10 250 0.0 4.8 0.03 0.05 0.03 95 1026.2
20181214192445 10 198 3.2 12.9 0.03 0.05 0.03 95 1026.0
20181214190945 10 150 1.6 9.7 0.00 0.05 0.00 95 1026.1
20181214185445 10 173 1.6 11.3 0.00 0.05 0.00 95 1026.0
20181214183944 10 112 3.2 9.7 0.00 0.05 0.00 94 1026.1
20181214182445 10 120 1.6 6.4 0.00 0.05 0.00 94 1026.0
20181214181720 10 217 0.0 0.0 0.00 0.05 0.00 93 1026.2
20181214180945 10 217 0.0 0.0 0.00 0.05 0.00 93 1026.2
20181214175445 10 173 0.0 0.0 0.00 0.05 0.00 93 1026.1
20181214173942 10 163 0.0 0.0 0.00 0.05 0.00 92 1025.9
20181214172443 10 163 0.0 0.0 0.00 0.05 0.00 91 1025.7
20181214170942 10 157 0.0 3.2 0.00 0.05 0.00 91 1025.7
20181214165442 10 189 0.0 1.6 0.00 0.05 0.00 91 1025.6
20181214163940 10 176 1.6 8.0 0.00 0.08 0.00 90 1025.4
20181214162438 10 172 0.0 0.0 0.00 0.08 0.00 91 1025.6
20181214160938 10 148 0.0 0.0 0.00 0.08 0.00 91 1025.5
20181214155437 10 148 0.0 0.0 0.00 0.08 0.00 91 1025.2
20181214153935 10 134 1.6 11.3 0.00 0.08 0.00 90 1025.2
20181214152434 10 146 4.8 12.9 0.00 0.08 0.00 89 1025.2
20181214150934 10 152 4.8 11.3 0.00 0.08 0.00 91 1025.4
20181214145435 10 111 8.0 12.9 0.00 0.08 0.00 91 1025.2
20181214144708 10 117 6.4 12.9 0.00 0.08 0.00 90 1025.3
20181214143932 10 117 6.4 12.9 0.00 0.08 0.00 90 1025.3
20181214142432 11 135 1.6 8.0 0.00 0.08 0.00 89 1025.3
20181214141706 11 179 0.0 3.2 0.00 0.08 0.00 89 1025.5
20181214140931 11 179 0.0 3.2 0.00 0.08 0.00 89 1025.5
20181214135432 10 233 1.6 8.0 0.00 0.08 0.00 90 1025.5
20181214133930 10 223 1.6 11.3 0.00 0.08 0.00 91 1025.6
20181214132430 10 114 6.4 12.9 0.00 0.08 0.00 91 1025.5
20181214130930 10 119 8.0 14.5 0.00 0.08 0.00 92 1025.5
20181214125429 10 130 8.0 12.9 0.00 0.08 0.00 92 1025.5
20181214123928 10 101 1.6 6.4 0.00 0.08 0.00 92 1025.8
20181214122428 9 111 3.2 6.4 0.00 0.08 0.00 93 1026.1
20181214120925 9 93 4.8 11.3 0.00 0.08 0.00 93 1026.3
20181214115426 9 80 3.2 6.4 0.00 0.08 0.00 93 1026.5
20181214113924 9 237 1.6 6.4 0.00 0.13 0.00 94 1026.9
20181214112422 8 218 1.6 4.8 0.00 0.15 0.00 94 1026.9
20181214111701 8 74 3.2 6.4 0.00 0.20 0.00 94 1026.8
20181214110922 8 74 0.0 4.8 0.00 0.18 0.00 94 1026.9
20181214105420 8 74 3.2 6.4 0.00 0.20 0.00 94 1026.8
20181214103920 8 98 4.8 6.4 0.00 0.23 0.00 94 1026.9
20181214102420 8 89 3.2 6.4 0.00 0.25 0.00 95 1026.7
20181214100920 7 71 3.2 6.4 0.00 0.25 0.00 95 1026.5
20181214100156 7 82 3.2 6.4 0.00 0.25 0.00 95 1026.4
20181214095420 7 82 3.2 6.4 0.00 0.25 0.00 95 1026.4
20181214093919 7 94 0.0 6.4 0.00 0.25 0.00 95 1026.0
20181214093154 7 221 0.0 4.8 0.00 0.25 0.00 95 1026.0
20181214092531 7 221 1.6 4.8 0.00 0.25 0.00 95 1025.5
20181214092420 7 221 0.0 4.8 0.00 0.25 0.00 95 1026.0
20181214090920 7 221 1.6 4.8 0.00 0.25 0.00 95 1025.5
20181214090155 7 113 3.2 6.4 0.00 0.25 0.00 95 1025.1
20181214085419 7 113 3.2 6.4 0.00 0.25 0.00 95 1025.1
20181214083920 7 97 0.0 6.4 0.00 0.28 0.00 95 1025.0
20181214082419 7 123 0.0 0.0 0.00 0.30 0.00 95 1024.8
20181214080919 7 123 0.0 0.0 0.00 0.33 0.00 95 1024.8
20181214075417 7 123 0.0 0.0 0.00 0.33 0.00 95 1024.5
20181214074650 7 123 0.0 0.0 0.00 0.33 0.00 95 1024.3
20181214073915 7 123 0.0 0.0 0.00 0.33 0.00 95 1024.3
20181214072415 7 123 0.0 0.0 0.00 0.33 0.00 95 1024.1
20181214071648 6 101 0.0 0.0 0.00 0.33 0.00 95 1024.0
20181214070913 6 101 0.0 0.0 0.00 0.33 0.00 95 1024.0
20181214065413 6 123 0.0 0.0 0.00 0.36 0.00 95 1024.4
20181214063912 6 136 0.0 0.0 0.00 0.36 0.00 95 1024.1
20181214062408 7 151 0.0 0.0 0.00 0.36 0.00 95 1023.7
20181214060910 6 103 0.0 0.0 0.00 0.41 0.00 95 1023.6
20181214055407 6 103 0.0 0.0 0.00 0.43 0.00 94 1023.5
20181214053905 7 118 0.0 0.0 0.00 0.48 0.00 95 1023.5
20181214052405 6 118 0.0 0.0 0.00 0.48 0.00 95 1023.4
20181214050904 6 128 0.0 0.0 0.00 0.48 0.00 95 1023.3
20181214045403 6 96 0.0 0.0 0.00 0.51 0.00 95 1023.1
20181214043901 6 22 0.0 0.0 0.00 0.53 0.00 94 1023.1
20181214042401 6 126 0.0 0.0 0.00 0.53 0.00 95 1023.2
20181214040901 6 132 0.0 0.0 0.00 0.53 0.00 95 1022.9
20181214035359 6 123 0.0 0.0 0.00 0.53 0.00 95 1023.1
20181214033859 6 123 1.6 4.8 0.00 0.53 0.00 95 1023.2
20181214032359 6 124 3.2 6.4 0.00 0.53 0.00 95 1023.0
20181214030859 6 82 0.0 0.0 0.00 0.61 0.00 95 1023.1
20181214025357 6 82 0.0 0.0 0.00 0.66 0.00 95 1022.9
20181214023856 6 82 0.0 4.8 0.00 0.71 0.00 95 1023.0